This demonstration page uses our WeatherBlox Daily Observations layout. Learn more.

Left ArrowRight Arrow

Hourly Observations for October 12, 2018

Temp ( °F °C ) Dew Point ( °F °C ) Humidity (%) Winds ( mph kmh ) Pressure ( in mb ) Visibility ( mi km ) Precip ( " mm )
12:53 am 00:53 Cloudy 44 6.7 36 2.2 73 73 SW 3 6 30.11 1020 10 16 0.00 0.00
1:30 am 01:30 Cloudy with Light Rain 43 6 36 2 76 76 WSW 3 6 30.15 1021 5 8 0.00 0.00
1:53 am 01:53 Cloudy with Light Rain 41 5 37 2.8 86 86 SW 6 9 30.10 1019 6 10 0.05 1.27
2:27 am 02:27 Cloudy with Light Rain 41 5 37 2.8 86 86 S 5 7 30.12 1020 10 16 0.00 0.03
2:53 am 02:53 Cloudy 40 4.4 38 3.3 93 93 S 3 6 30.07 1018 10 16 0.00 0.03
3:53 am 03:53 Cloudy 41 5 37 2.8 86 86 Calm 30.07 1018 10 16 0.00 0.00
4:53 am 04:53 Cloudy 41 5 38 3.3 89 89 N 3 6 30.06 1018 10 16 0.00 0.00
5:53 am 05:53 Cloudy 41 5 36 2.2 82 82 Calm 30.06 1018 10 16 0.00 0.00
6:10 am 06:10 Cloudy 41 5 36 2 81 81 Calm 30.09 1019 10 16 0.00 0.00
6:53 am 06:53 Cloudy with Light Rain 40 4.4 37 2.8 89 89 Calm 30.05 1018 10 16 0.01 0.25
7:53 am 07:53 Cloudy with Light Rain 40 4.4 38 3.3 93 93 S 3 6 30.04 1017 10 16 0.00 0.03
8:05 am 08:05 Cloudy with Light Rain 40 4.4 38 3.3 93 93 SSE 7 11 30.06 1018 10 16 0.01 0.25
8:53 am 08:53 Cloudy with Light Rain 40 4.4 38 3.3 93 93 SSE 6 9 30.03 1017 10 16 0.01 0.25
9:07 am 09:07 Cloudy with Light Rain 40 4.4 39 3.9 97 97 S 3 6 30.09 1019 9 14 0.00 0.03
9:14 am 09:14 Cloudy with Light Rain 39 4 39 4 100 100 S 5 7 30.06 1018 5 8 0.00 0.00
9:24 am 09:24 Cloudy with Rain 39 4 39 4 100 100 S 3 6 30.09 1019 2 3 0.00 0.00
9:28 am 09:28 Cloudy with Light Rain 39 4 39 4 100 100 SSW 6 9 30.09 1019 3 5 0.00 0.00
9:51 am 09:51 Cloudy with Light Rain 39 4 39 4 100 100 SW 5 7 30.09 1019 6 10 0.03 0.76
9:53 am 09:53 Cloudy with Light Rain 41 5 39 3.9 93 93 SW 5 7 30.05 1018 5 8 0.03 0.76
10:01 am 10:01 Cloudy with Light Rain 40 4.4 39 3.9 97 97 WSW 3 6 30.09 1019 3 4 0.01 0.25
10:09 am 10:09 Cloudy with Light Rain 41 5 39 3.9 93 93 W 5 7 30.09 1019 5 8 0.02 0.51
10:48 am 10:48 Cloudy with Light Rain 43 6 39 4 87 87 SSW 5 7 30.09 1019 6 10 0.00 0.00
10:53 am 10:53 Cloudy with Light Rain 42 5.6 41 5 96 96 SW 7 11 30.04 1017 6 10 0.03 0.76
11:45 am 11:45 Cloudy 43 6.1 40 4.4 89 89 W 9 15 30.09 1019 10 16 0.00 0.03
11:53 am 11:53 Cloudy 43 6.1 40 4.4 89 89 W 8 13 30.04 1017 10 16 0.00 0.03
12:53 pm 12:53 Cloudy 46 7.8 42 5.6 86 86 W 9 15 30.02 1017 10 16 0.00 0.00
1:05 pm 13:05 Cloudy 47 8.3 41 5 80 80 NW 12 19 30.03 1017 10 16 0.00 0.00
1:53 pm 13:53 Cloudy 48 8.9 41 5 77 77 NW 9 15 30.01 1016 10 16 0.00 0.00
2:53 pm 14:53 Cloudy 48 8.9 41 5 77 77 NW 9 15 29.99 1016 10 16 0.00 0.00
3:12 pm 15:12 Mostly Cloudy 48 9 43 6 82 82 WNW 6 9 30.00 1016 10 16 0.00 0.00
3:53 pm 15:53 Mostly Cloudy 52 11.1 41 5 66 66 NNW 10 17 29.95 1014 10 16 0.00 0.00
4:53 pm 16:53 Partly Cloudy 54 12.2 38 3.3 55 55 NW 10 17 29.94 1014 10 16 0.00 0.00
5:53 pm 17:53 Sunny 52 11.1 34 1.1 50 50 WNW 8 13 29.96 1015 10 16 0.00 0.00
6:53 pm 18:53 Sunny 49 9.4 35 1.7 59 59 Calm 29.97 1015 10 16 0.00 0.00
7:53 pm 19:53 Clear 43 6.1 37 2.8 80 80 Calm 29.97 1015 10 16 0.00 0.00
8:53 pm 20:53 Clear 39 3.9 36 2.2 89 89 Calm 29.97 1015 10 16 0.00 0.00
9:53 pm 21:53 Clear 39 3.9 34 1.1 82 82 E 5 7 29.96 1015 10 16 0.00 0.00
10:53 pm 22:53 Clear 40 4.4 36 2.2 86 86 SE 6 9 29.96 1015 10 16 0.00 0.00
11:53 pm 23:53 Clear 39 3.9 35 1.7 86 86 S 6 9 29.96 1014 10 16 0.00 0.00

Powered by AerisWeather